Wind_Speed
3 3 2 2 2 2 3 6 8 10 11 12 13 12 11 11 11 11 11 11 12 12 12 12 12 11 11 10 9 8 7 6 6 6 7 7 6 5 5 6 6 6 6
0 1 0 0 0 1 2 5 7 9 11 12 13 13 11 10 10 10 10 11 11 12 12 12 12 11 10 10 9 9 8 7 6 5 5 5 5 4 4 3 3 3 3
1 1 1 2 2 2 4 6 8 9 11 12 12 12 12 10 9 9 9 10 10 11 12 12 11 11 10 9 8 8 7 7 6 5 4 3 3 3 2 2 1 1 0
1 1 2 3 3 3 5 7 9 10 11 12 12 12 12 11 10 9 9 9 10 11 12 12 12 11 10 9 8 7 6 6 6 5 5 4 3 2 1 1 1 1 2
3 3 4 4 5 5 6 7 9 10 11 12 12 12 12 12 11 10 9 9 10 11 12 13 13 12 10 9 9 8 7 6 5 5 5 5 5 4 4 3 2 2 2
5 5 6 6 6 6 7 7 9 10 11 12 13 12 12 12 12 11 11 11 11 12 13 13 13 13 11 10 10 9 9 8 7 6 6 6 6 5 6 6 5 5 4
4 5 5 6 7 8 8 9 10 11 13 14 14 14 14 14 14 13 13 13 13 14 14 14 14 14 13 12 11 11 11 11 10 9 8 7 7 6 6 7 8 8 7
3 4 5 7 8 10 11 12 13 14 15 16 17 17 18 17 17 16 16 16 16 17 16 16 15 14 14 14 14 13 12 12 12 12 11 10 9 8 7 7 8 9 10
4 6 8 10 12 13 14 15 16 17 18 19 19 20 20 20 20 20 20 20 20 20 19 19 18 17 17 17 17 16 16 15 14 14 13 13 12 11 10 9 8 7 9
8 10 12 14 15 16 17 18 19 20 21 22 23 23 24 24 24 24 25 25 24 24 23 22 22 21 21 21 20 20 20 19 17 16 16 15 15 13 13 12 10 9 8
13 14 16 17 19 20 21 22 22 23 24 25 26 27 28 28 29 29 29 29 29 29 28 27 26 26 25 25 25 24 24 25 23 21 19 18 18 17 15 14 13 12 11
18 18 19 20 22 24 24 25 26 26 27 27 28 29 30 31 32 33 33 34 33 33 32 32 31 31 30 30 30 29 28 28 27 26 24 22 22 21 19 17 16 15 14
22 23 24 25 26 27 28 28 28 28 28 29 29 30 30 31 33 34 35 35 36 36 35 35 35 34 33 33 33 33 33 32 31 30 28 27 27 25 23 21 20 18 16
25 27 28 29 30 32 32 32 31 30 29 29 30 30 30 30 31 32 34 35 35 36 36 36 36 35 35 34 33 33 32 31 33 33 32 31 30 29 28 26 24 23 21
29 30 32 33 34 35 36 35 34 32 32 31 30 30 31 30 30 31 31 32 32 33 33 33 34 33 33 33 33 31 29 29 30 32 34 33 34 34 32 31 30 28 26
33 34 35 36 37 37 37 36 35 34 34 34 33 32 31 31 30 30 28 28 28 28 27 27 28 29 30 30 29 28 28 27 24 24 27 30 33 35 35 35 32 32 31
37 38 39 39 39 39 38 36 34 35 36 36 35 33 32 31 29 28 26 26 25 25 25 26 27 27 28 29 29 29 29 28 27 27 27 27 28 31 34 35 35 32 33
42 41 41 41 40 39 37 36 35 36 37 35 34 32 31 29 28 26 25 24 24 24 24 25 26 25 26 28 29 29 30 29 29 28 28 28 27 27 28 31 32 31 31
46 45 44 41 40 38 36 36 37 37 36 34 32 30 29 28 26 24 24 23 22 22 21 21 22 22 24 26 27 28 29 30 29 28 28 28 29 28 29 29 29 30 29
49 45 42 40 38 37 36 36 37 36 34 32 31 30 28 26 24 23 23 20 19 18 18 18 19 20 22 24 26 27 29 30 30 29 29 28 28 29 29 30 30 30 30
46 43 40 38 37 37 37 37 37 36 33 31 30 28 27 25 23 21 20 18 17 16 17 17 18 19 21 23 24 26 27 29 30 31 30 29 29 28 29 29 29 29 30
43 37 34 35 36 37 38 38 37 35 32 30 28 26 25 23 21 19 17 17 17 17 18 19 19 20 21 23 24 25 26 28 29 30 31 30 29 29 28 29 28 29 30
34 32 31 33 36 37 38 37 35 33 31 30 27 25 24 22 20 19 19 19 20 20 20 21 20 20 21 23 25 26 26 26 28 29 30 31 30 30 29 29 28 28 28
28 29 32 34 35 36 37 37 34 32 31 29 27 26 24 23 23 22 22 23 23 23 23 22 21 21 21 22 24 26 27 27 27 26 28 30 30 30 30 30 29 28 27
32 30 33 34 35 35 35 35 33 33 31 29 27 26 26 26 26 26 27 27 27 26 25 24 23 22 22 23 24 26 26 27 27 26 25 28 30 30 30 30 30 30 28
39 37 35 35 34 34 34 35 34 33 31 29 28 28 28 29 30 30 30 31 30 29 27 26 25 25 25 25 26 26 26 26 26 26 24 25 28 30 30 30 31 30 29
Wind_Direction
105 101 96 91 88 54 1 351 352 353 353 354 357 2 9 15 18 19 23 27 30 29 26 21 19 19 21 22 22 19 17 22 31 39 46 55 64 68 70 73 73 81 95
165 123 279 280 239 263 306 320 327 333 337 340 343 348 353 0 7 10 16 21 23 24 22 17 11 8 8 11 15 16 14 8 6 12 23 37 50 61 66 70 70 70 85
249 259 271 276 278 279 287 301 311 319 324 328 331 335 340 345 351 358 4 11 13 13 12 9 5 359 355 354 357 3 6 6 2 354 349 356 15 37 53 62 62 38 359
236 252 262 266 274 283 292 299 305 311 316 319 320 323 328 333 338 343 350 357 0 0 359 357 356 353 346 340 336 338 343 348 351 350 342 325 313 317 335 1 347 289 274
245 255 262 264 269 281 292 299 303 307 312 315 315 315 318 322 326 331 334 339 344 347 348 347 346 346 341 332 324 320 319 320 324 331 335 331 313 296 284 282 286 284 272
269 275 282 285 289 294 299 302 305 307 310 312 312 311 310 313 316 319 321 324 329 333 337 340 340 339 337 331 322 314 309 305 304 306 313 322 324 318 294 278 275 274 268
292 302 311 315 317 317 318 316 313 310 309 308 307 306 304 305 307 309 311 314 318 321 326 330 332 334 334 332 326 318 311 307 302 297 295 298 305 313 309 293 279 266 254
311 322 327 328 328 327 324 320 315 309 305 302 301 299 299 299 301 302 304 305 308 312 315 319 322 324 325 325 325 322 318 312 307 300 293 289 288 293 299 302 298 280 247
311 316 319 319 320 320 318 314 310 305 301 298 295 293 293 293 294 295 296 297 299 301 303 306 309 311 312 312 312 314 313 311 308 304 298 292 287 284 283 288 295 292 256
301 308 312 316 317 317 316 312 308 303 300 296 292 289 287 286 286 287 288 289 290 291 292 293 295 297 299 299 300 301 302 301 300 299 297 294 290 286 281 278 278 279 274
299 307 313 318 319 319 319 316 311 306 301 297 293 289 286 284 282 281 282 282 283 285 285 286 286 287 289 290 290 291 291 291 291 289 288 288 287 285 281 277 273 270 268
303 308 313 318 320 320 319 318 313 308 304 299 295 290 287 284 281 279 279 279 280 281 282 282 283 283 283 284 284 283 282 282 284 282 280 279 279 279 278 276 274 269 266
305 309 312 316 317 317 316 315 312 308 305 301 297 293 288 284 281 279 279 278 278 279 280 280 280 281 281 281 281 281 280 277 275 275 274 272 271 271 272 271 271 268 265
302 306 310 313 315 315 315 314 311 308 305 301 298 295 292 288 284 281 279 277 275 276 277 277 279 281 281 280 282 283 282 276 271 268 268 268 267 267 267 266 266 264 261
300 303 307 310 312 312 312 312 310 308 307 305 301 298 296 293 289 284 281 280 278 277 277 278 278 280 281 281 281 284 285 284 280 273 267 262 262 264 264 263 262 261 259
298 300 303 306 308 308 309 309 308 307 307 306 304 300 297 294 291 289 286 284 283 284 284 286 284 284 285 286 286 286 289 289 287 281 275 270 265 263 262 260 261 262 260
295 297 299 301 302 303 304 304 304 306 306 305 302 299 297 295 292 289 285 284 284 284 284 285 286 287 287 289 289 287 286 286 282 283 279 279 275 270 266 261 259 262 259
290 292 294 295 297 297 299 300 302 304 305 303 300 297 295 293 290 286 283 281 281 281 282 284 286 288 290 291 290 288 286 285 285 282 279 276 275 273 269 264 259 260 258
286 286 287 290 291 292 295 297 300 303 304 301 297 295 292 289 285 281 278 278 278 279 282 287 291 294 296 295 294 292 289 287 284 281 278 275 273 271 269 265 261 260 259
280 280 281 283 286 288 292 296 299 301 302 299 295 293 289 284 280 274 272 273 275 279 283 288 294 298 300 300 299 297 293 289 284 281 277 274 272 269 266 265 264 261 260
272 273 275 277 281 285 290 294 298 299 298 295 292 289 285 280 275 269 268 269 273 279 284 290 296 301 304 306 305 302 298 292 286 280 275 272 270 269 268 266 263 260 258
263 266 267 271 280 285 290 294 298 298 296 292 289 285 279 273 269 265 264 267 273 278 283 288 295 302 306 309 311 310 305 297 290 282 275 270 267 266 266 266 263 259 257
258 264 268 273 279 285 290 293 296 295 294 292 287 280 272 266 261 259 262 269 274 276 280 285 292 299 305 309 314 315 313 304 294 287 278 271 265 262 262 264 263 261 259
271 271 277 278 282 287 289 291 291 291 291 289 283 276 265 257 256 259 264 270 274 276 278 281 286 293 301 306 312 315 315 311 302 291 282 274 266 261 259 260 262 261 259
289 289 290 288 287 287 287 286 287 290 290 287 279 272 264 256 257 261 267 272 275 277 278 280 283 288 296 303 309 313 314 313 308 298 285 275 267 261 257 257 260 262 261
294 294 296 294 292 288 286 287 288 289 288 286 280 273 264 260 259 262 269 274 276 277 278 280 282 287 292 298 305 309 312 312 309 304 293 279 269 262 256 254 257 260 262
Height
5918 5918 5918 5918 5918 5918 5918 5918 5917 5916 5915 5914 5913 5912 5911 5909 5908 5907 5906 5905 5904 5902 5901 5900 5899 5898 5897 5896 5894 5893 5892 5892 5891 5890 5890 5890 5890 5890 5890 5891 5891 5891 5891
5918 5918 5918 5918 5918 5918 5918 5918 5917 5917 5916 5915 5914 5913 5912 5911 5909 5908 5907 5906 5905 5904 5903 5902 5900 5899 5898 5897 5896 5894 5893 5892 5892 5892 5891 5891 5891 5891 5891 5891 5892 5892 5892
5918 5918 5918 5918 5918 5918 5918 5917 5917 5917 5916 5915 5914 5913 5912 5911 5910 5909 5908 5907 5905 5904 5903 5902 5901 5900 5899 5898 5897 5895 5894 5893 5893 5892 5892 5892 5891 5891 5891 5892 5892 5892 5893
5917 5917 5918 5918 5918 5917 5917 5917 5917 5916 5915 5915 5914 5913 5912 5911 5910 5909 5908 5907 5906 5905 5904 5903 5902 5901 5899 5899 5897 5896 5895 5894 5894 5893 5893 5893 5892 5892 5892 5892 5892 5892 5893
5916 5916 5916 5916 5916 5916 5916 5916 5915 5915 5914 5914 5913 5912 5912 5911 5910 5909 5908 5907 5906 5905 5904 5903 5902 5901 5900 5899 5898 5897 5896 5895 5894 5893 5893 5893 5892 5892 5892 5892 5892 5892 5892
5915 5915 5915 5915 5915 5915 5915 5914 5914 5914 5913 5912 5912 5911 5911 5910 5909 5909 5908 5907 5906 5905 5904 5902 5901 5900 5899 5898 5897 5896 5896 5895 5894 5893 5893 5893 5892 5892 5892 5892 5892 5892 5892
5915 5914 5914 5914 5914 5914 5913 5913 5912 5912 5911 5911 5910 5910 5909 5909 5908 5907 5906 5905 5904 5903 5902 5902 5900 5899 5898 5897 5896 5896 5895 5894 5894 5893 5893 5892 5892 5891 5891 5891 5891 5891 5892
5914 5914 5913 5913 5913 5912 5912 5911 5910 5910 5909 5909 5908 5908 5907 5906 5906 5905 5904 5903 5902 5902 5901 5900 5899 5898 5897 5896 5895 5894 5893 5893 5892 5892 5892 5892 5891 5891 5890 5890 5890 5890 5890
5913 5912 5912 5912 5911 5910 5909 5908 5908 5907 5906 5906 5905 5905 5904 5904 5903 5902 5901 5900 5899 5899 5898 5897 5897 5896 5895 5894 5893 5892 5891 5891 5891 5890 5890 5890 5890 5890 5889 5889 5889 5889 5889
5912 5911 5910 5910 5909 5908 5907 5906 5905 5904 5903 5902 5902 5901 5900 5900 5899 5898 5897 5896 5895 5894 5894 5893 5893 5892 5892 5891 5890 5890 5889 5888 5888 5888 5888 5888 5888 5888 5888 5888 5888 5888 5888
5909 5909 5908 5907 5906 5905 5904 5902 5901 5900 5899 5898 5897 5897 5896 5895 5895 5894 5893 5892 5891 5890 5889 5888 5888 5887 5887 5887 5886 5886 5886 5884 5884 5884 5885 5885 5885 5885 5885 5886 5886 5886 5887
5906 5905 5905 5904 5902 5901 5900 5898 5896 5895 5894 5892 5892 5891 5890 5890 5889 5888 5888 5886 5885 5884 5883 5882 5882 5882 5881 5881 5880 5880 5880 5880 5880 5880 5881 5881 5880 5881 5882 5883 5883 5884 5884
5902 5901 5900 5899 5898 5896 5895 5893 5891 5890 5889 5887 5885 5884 5883 5883 5882 5881 5881 5880 5878 5877 5876 5876 5875 5875 5875 5874 5874 5873 5874 5873 5873 5873 5874 5875 5874 5876 5877 5878 5879 5880 5881
5897 5896 5895 5894 5892 5890 5888 5887 5885 5884 5883 5881 5879 5878 5876 5875 5874 5874 5873 5872 5871 5870 5869 5869 5868 5868 5867 5867 5866 5866 5866 5866 5866 5866 5868 5868 5867 5869 5871 5872 5874 5875 5876
5893 5891 5890 5888 5886 5884 5882 5880 5878 5877 5875 5874 5873 5871 5869 5868 5867 5866 5865 5864 5864 5863 5863 5862 5861 5860 5860 5859 5859 5858 5858 5857 5858 5858 5859 5861 5861 5863 5864 5866 5868 5869 5871
5886 5885 5883 5882 5880 5878 5876 5874 5872 5870 5868 5867 5865 5864 5862 5861 5859 5858 5858 5857 5856 5856 5855 5855 5854 5853 5853 5852 5852 5851 5851 5851 5851 5851 5852 5853 5854 5855 5857 5858 5860 5862 5864
5879 5877 5876 5874 5873 5871 5869 5867 5866 5864 5862 5861 5859 5857 5856 5854 5853 5852 5851 5851 5850 5850 5849 5849 5848 5847 5846 5845 5845 5844 5844 5844 5844 5845 5845 5846 5847 5847 5849 5850 5852 5854 5856
5870 5869 5868 5866 5865 5863 5862 5861 5859 5857 5856 5854 5852 5851 5850 5848 5847 5846 5845 5845 5845 5844 5844 5843 5842 5841 5840 5839 5838 5838 5837 5837 5838 5838 5838 5839 5840 5840 5841 5842 5844 5846 5848
5859 5858 5857 5856 5856 5855 5854 5853 5852 5850 5849 5847 5845 5844 5843 5842 5841 5840 5840 5840 5840 5839 5838 5837 5836 5836 5834 5833 5832 5831 5831 5830 5831 5831 5832 5832 5832 5833 5834 5835 5837 5839 5840
5845 5844 5845 5846 5847 5847 5846 5846 5844 5843 5842 5840 5839 5838 5837 5836 5835 5835 5835 5835 5835 5834 5833 5832 5831 5830 5829 5827 5825 5824 5823 5823 5822 5823 5824 5824 5825 5826 5827 5828 5830 5832 5833
5834 5831 5834 5837 5839 5839 5839 5838 5837 5836 5835 5834 5833 5832 5831 5830 5830 5830 5830 5830 5830 5829 5828 5827 5826 5825 5823 5821 5820 5818 5817 5815 5814 5814 5815 5816 5817 5818 5819 5820 5822 5824 5826
5821 5819 5824 5827 5830 5831 5831 5830 5830 5828 5828 5827 5826 5826 5825 5824 5824 5825 5825 5825 5825 5824 5824 5822 5821 5819 5817 5815 5813 5811 5810 5808 5806 5806 5806 5807 5809 5810 5811 5812 5814 5815 5817
5803 5808 5813 5819 5822 5823 5823 5823 5822 5822 5821 5820 5820 5819 5819 5819 5819 5820 5820 5820 5820 5819 5818 5817 5816 5814 5812 5809 5806 5804 5802 5801 5798 5798 5797 5798 5799 5801 5803 5804 5806 5808 5809
5799 5802 5809 5813 5814 5815 5815 5816 5815 5815 5814 5814 5813 5813 5813 5813 5814 5814 5814 5814 5814 5814 5813 5811 5810 5808 5807 5804 5801 5798 5795 5793 5791 5790 5789 5789 5790 5792 5794 5796 5798 5800 5802
5802 5801 5806 5806 5807 5807 5807 5807 5807 5807 5807 5806 5806 5806 5806 5807 5808 5808 5808 5808 5807 5807 5806 5805 5804 5802 5800 5798 5796 5792 5789 5786 5783 5782 5782 5781 5781 5783 5785 5788 5790 5791 5794
5804 5801 5800 5801 5801 5800 5800 5800 5800 5800 5799 5799 5798 5798 5799 5799 5800 5801 5801 5801 5800 5800 5799 5798 5797 5796 5794 5792 5789 5786 5783 5780 5777 5774 5774 5773 5773 5774 5776 5780 5781 5783 5786